This is the latest recevied weather packets stored in our database for station/object KC5CAM-13. If no packets are shown the sender has not sent any weather packets the latest 10 day(s).
| Time | Temp. | Humidity | Pressure | Rain* | Wind** | Luminosity | Snow |
|---|---|---|---|---|---|---|---|
| 1777823711 | 23.89° C | 50% | 1021.9 hPa | 0 mm | - | 787 W/m² | - |
| 1777823408 | 23.89° C | 50% | 1021.6 hPa | 0 mm | - | 749 W/m² | - |
| 1777823106 | 23.33° C | 51% | 1021.9 hPa | 0 mm | - | 695 W/m² | - |
| 1777822803 | 23.33° C | 53% | 1021.9 hPa | 0 mm | - | 675 W/m² | - |
| 1777822501 | 22.78° C | 54% | 1021.8 hPa | 0 mm | - | 662 W/m² | - |
| 1777822198 | 22.78° C | 52% | 1021.7 hPa | 0 mm | - | 63 W/m² | - |
| 1777821896 | 22.78° C | 56% | 1021.7 hPa | 0 mm | - | 65 W/m² | - |
| 1777821593 | 22.22° C | 55% | 1021.8 hPa | 0 mm | - | 53 W/m² | - |
| 1777821291 | 21.67° C | 56% | 1022 hPa | 0 mm | - | 51 W/m² | - |
| 1777820988 | 21.67° C | 57% | 1021.8 hPa | 0 mm | - | 50 W/m² | - |
| 1777820685 | 21.67° C | 59% | 1022 hPa | 0 mm | - | 49 W/m² | - |
| 1777820380 | 21.11° C | 58% | 1021.9 hPa | 0 mm | - | 52 W/m² | - |
| 1777820078 | 21.11° C | 62% | 1021.7 hPa | 0 mm | - | 46 W/m² | - |
| 1777819775 | 20.56° C | 60% | 1021.8 hPa | 0 mm | - | 51 W/m² | - |
| 1777819473 | 20.56° C | 61% | 1021.9 hPa | 0 mm | - | 46 W/m² | - |
| 1777819171 | 20° C | 64% | 1021.7 hPa | 0 mm | - | 44 W/m² | - |
| 1777818867 | 20° C | 63% | 1021.7 hPa | 0 mm | - | 54 W/m² | - |
| 1777818563 | 19.44° C | 64% | 1021.8 hPa | 0 mm | - | 43 W/m² | - |
| 1777818261 | 19.44° C | 64% | 1021.8 hPa | 0 mm | - | 49 W/m² | - |
| 1777817957 | 18.89° C | 63% | 1021.7 hPa | 0 mm | - | 41 W/m² | - |
| 1777817654 | 18.89° C | 66% | 1021.7 hPa | 0 mm | - | 41 W/m² | - |
| 1777817351 | 18.89° C | 64% | 1021.9 hPa | 0 mm | - | 46 W/m² | - |
| 1777817048 | 18.33° C | 66% | 1021.7 hPa | 0 mm | - | 39 W/m² | - |
| 1777816743 | 18.33° C | 68% | 1021.6 hPa | 0 mm | - | 38 W/m² | - |
| 1777816441 | 17.78° C | 68% | 1021.6 hPa | 0 mm | - | 37 W/m² | - |
* Rain latest hour (hover to see other rain measurements)
** Current wind speed in m/s (hover to see current wind gust speed)